Notices

What's New in latest Release from April 7th, 2021:

- Updated Glossary, including Speed of Maximum Gust, and Total Hourly Precipitation

- Updated national and regional climate services offices contacts and prices information

- Addition of station inventory lists for 1981-2010, 1971-2000, and 1961-1990 Normals.

If you haven't already, please take our survey and provide feedback about our website: https://eccc.sondage-survey.ca/f/LanguageSelection.aspx?s=442ca660-fcf1-47c0-95a9-59707d6fd709

Hourly Data Report for April 01, 2012

MIRAMICHI RCS
NEW BRUNSWICK

47°00'34.000" N
65°27'54.000" W
33.00 m
8100989
71744
ACQ

Download Data

Hourly Data (April 2012)
Hourly Data Report for April 1, 2012
TIME
LST
Temp Definition
°C
Dew Point Definition
°C
Rel Hum Definition
%
Precip. Amount Definition
mm

Wind Dir Definition
10's deg

Wind Spd Definition
km/h
Visibility Definition
km
Stn Press Definition
kPa
Hmdx Definition


Wind Chill Definition


Weather Definition


00:00 -4.4 -7.1 81     0   100.68     LegendNANA
01:00 -5.0 -6.8 87     0   100.66     LegendNANA
02:00 -5.4 -6.9 89   31 4   100.63   -7 LegendNANA
03:00 -6.0 -7.7 88   26 4   100.57   -8 LegendNANA
04:00 -6.4 -8.2 87   25 4   100.56   -8 LegendNANA
05:00 -6.3 -8.1 87   27 2   100.57   -7 LegendNANA
06:00 -7.0 -8.8 87   23 2   100.59   -8 LegendNANA
07:00 -4.8 -7.4 82     0   100.61     LegendNANA
08:00 -1.4 -6.8 67   25 4   100.60   -3 LegendNANA
09:00 1.6 -7.0 53   15 2   100.58     LegendNANA
10:00 3.9 -10.5 34   27 2   100.52     LegendNANA
11:00 5.2 -10.8 30   20 7   100.43     LegendNANA
12:00 6.1 -11.2 28   21 9   100.33     LegendNANA
13:00 7.6 -10.8 26   18 7   100.22     LegendNANA
14:00 7.9 -11.3 24   31 9   100.13     LegendNANA
15:00 8.5 -9.2 27   4 11   100.07     LegendNANA
16:00 8.2 -7.3 33   7 13   100.04     LegendNANA
17:00 7.4 -7.6 34   10 17   100.04     LegendNANA
18:00 5.4 -8.0 37   10 15   100.09     LegendNANA
19:00 1.8 -8.3 47   9 13   100.10     LegendNANA
20:00 1.5 -7.1 53   12 11   100.10     LegendNANA
21:00 0.5 -5.2 66   11 7   100.11     LegendNANA
22:00 -0.4 -5.5 68   10 7   100.11   -3 LegendNANA
23:00 0.3 -4.9 68   16 11   100.04     LegendNANA

Notes on Data Quality.

Legend

  • E = Estimated
  • M = Missing
  • NA = Not Available*
  • [empty] = Indicates an unobserved value
Date modified: